contact:dominique.lefevre@mio.osupytheas.fr, maurice.libes@osupytheas.fr, didier.mallarino@osupytheas.fr
Project:EMSO http://www.emso-fr.org/EMSO-France
Depth: 2436.0 m
Title:EMSO Ligure Ouest : Data MII capteur AQUADOPP
Date,Latitude,Longitude,X_East,Y_North,Z_Up,Amplitude_X,Amplitude_Y,Amplitude_Z,Batterie,SoundSpeed,Heading,Pitch,Roll,Pressure,TIS,Speed,Direction
, degrees North, degrees East, m.s-1, m.s-1,m.s-1, 1, 1, 1, Volt, m.s-1, degree, degree, degree, dbar, degree_C, m.s-1, degree
2022-03-29T00:04:03,42.805,6.029,0.02,-0.069,-0.036,106.0,105.0,103.0,13.4,1505.2,333.0,-0.8,1.8,2470.472,13.28,0.071,163.8
2022-03-29T00:07:03,42.805,6.029,0.033,-0.079,-0.026,107.0,106.0,103.0,13.3,1505.2,333.2,-0.7,1.8,2470.485,13.28,0.085,157.3
2022-03-29T00:10:03,42.805,6.029,0.06,-0.047,-0.009,106.0,104.0,102.0,13.4,1505.2,325.0,-0.7,1.8,2470.467,13.28,0.076,128.1
2022-03-29T00:13:03,42.805,6.029,0.038,-0.067,-0.011,106.0,105.0,103.0,13.4,1505.2,329.8,-0.8,1.8,2470.452,13.28,0.077,150.4
2022-03-29T00:16:03,42.805,6.029,0.019,-0.061,-0.009,105.0,105.0,103.0,13.4,1505.2,323.9,-0.7,1.8,2470.483,13.28,0.063,162.7
2022-03-29T00:19:03,42.805,6.029,0.047,-0.057,-0.003,106.0,104.0,103.0,13.3,1505.2,325.5,-0.7,1.8,2470.493,13.28,0.073,140.5
2022-03-29T00:22:03,42.805,6.029,0.05,-0.062,-0.006,106.0,105.0,103.0,13.4,1505.2,322.3,-0.7,1.8,2470.474,13.28,0.079,141.1
2022-03-29T00:25:03,42.805,6.029,0.033,-0.05,0.005,106.0,105.0,104.0,13.4,1505.2,329.2,-0.8,1.8,2470.468,13.28,0.059,146.6
2022-03-29T00:28:03,42.805,6.029,0.023,-0.066,-0.031,107.0,104.0,103.0,13.4,1505.2,324.9,-0.8,1.8,2470.458,13.28,0.069,160.8
2022-03-29T00:31:03,42.805,6.029,0.025,-0.073,0.004,106.0,104.0,102.0,13.4,1505.2,331.8,-0.8,1.8,2470.465,13.28,0.077,161.1
2022-03-29T00:34:03,42.805,6.029,0.038,-0.063,0.001,106.0,105.0,103.0,13.4,1505.2,331.8,-0.7,1.8,2470.489,13.28,0.073,148.9
2022-03-29T00:37:03,42.805,6.029,0.031,-0.057,-0.009,107.0,105.0,103.0,13.4,1505.2,331.0,-0.7,1.8,2470.458,13.28,0.064,151.5
2022-03-29T00:40:03,42.805,6.029,0.045,-0.063,-0.007,106.0,105.0,103.0,13.3,1505.2,325.1,-0.8,1.8,2470.468,13.29,0.077,144.5
2022-03-29T00:43:03,42.805,6.029,0.039,-0.074,-0.02,107.0,105.0,103.0,13.4,1505.2,329.7,-0.7,1.8,2470.483,13.28,0.083,152.2
2022-03-29T00:46:03,42.805,6.029,0.038,-0.068,-0.021,106.0,105.0,103.0,13.3,1505.2,331.1,-0.8,1.8,2470.501,13.28,0.077,150.8
2022-03-29T00:49:03,42.805,6.029,0.057,-0.059,-0.002,106.0,106.0,102.0,13.3,1505.2,327.1,-0.7,1.8,2470.522,13.28,0.082,136.0
2022-03-29T00:52:03,42.805,6.029,0.041,-0.086,-0.044,106.0,104.0,103.0,13.4,1505.2,323.8,-0.7,1.8,2470.467,13.28,0.095,154.5
2022-03-29T00:55:03,42.805,6.029,0.045,-0.072,0.011,106.0,106.0,102.0,13.3,1505.2,326.4,-0.8,1.8,2470.496,13.28,0.084,148.0
2022-03-29T00:58:03,42.805,6.029,0.063,-0.076,0.006,106.0,105.0,103.0,13.4,1505.2,324.4,-0.7,1.8,2470.486,13.28,0.098,140.3
2022-03-29T01:04:03,42.805,6.029,0.029,-0.084,-0.035,108.0,107.0,105.0,13.3,1505.2,331.9,-0.8,1.8,2470.474,13.28,0.088,161.0
2022-03-29T01:07:03,42.805,6.029,0.035,-0.068,-0.005,105.0,105.0,103.0,13.3,1505.2,330.4,-0.7,1.9,2470.473,13.28,0.076,152.8
2022-03-29T01:10:03,42.805,6.029,0.05,-0.061,0.018,105.0,106.0,103.0,13.3,1505.2,331.3,-0.7,1.8,2470.529,13.28,0.078,140.7
2022-03-29T01:13:03,42.805,6.029,0.046,-0.064,0.001,106.0,106.0,102.0,13.4,1505.2,323.5,-0.7,1.8,2470.534,13.28,0.078,144.3
2022-03-29T01:16:03,42.805,6.029,0.038,-0.066,-0.023,106.0,105.0,104.0,13.4,1505.2,328.5,-0.8,1.8,2470.495,13.28,0.076,150.1
2022-03-29T01:19:03,42.805,6.029,0.022,-0.069,-0.005,106.0,105.0,103.0,13.3,1505.2,331.0,-0.7,1.8,2470.526,13.28,0.072,162.3
2022-03-29T01:22:03,42.805,6.029,0.039,-0.056,0.014,106.0,106.0,102.0,13.4,1505.2,325.7,-0.7,1.9,2470.528,13.28,0.068,145.1
2022-03-29T01:25:03,42.805,6.029,0.047,-0.078,-0.016,106.0,105.0,104.0,13.4,1505.2,324.2,-0.7,1.8,2470.497,13.29,0.091,148.9
2022-03-29T01:28:03,42.805,6.029,0.05,-0.049,0.005,107.0,105.0,103.0,13.4,1505.2,325.5,-0.7,1.8,2470.476,13.28,0.07,134.4
2022-03-29T01:31:03,42.805,6.029,0.022,-0.077,-0.037,106.0,105.0,103.0,13.4,1505.2,329.0,-0.7,1.8,2470.507,13.29,0.08,164.1
2022-03-29T01:34:03,42.805,6.029,0.034,-0.061,0.023,106.0,105.0,103.0,13.3,1505.2,328.9,-0.7,1.8,2470.52,13.29,0.069,150.9
2022-03-29T01:37:03,42.805,6.029,0.027,-0.093,-0.045,106.0,105.0,103.0,13.4,1505.2,329.9,-0.7,1.8,2470.492,13.29,0.096,163.8
2022-03-29T01:40:03,42.805,6.029,0.045,-0.077,0.011,106.0,106.0,103.0,13.4,1505.2,324.4,-0.7,1.8,2470.537,13.29,0.089,149.7
2022-03-29T01:43:03,42.805,6.029,0.03,-0.069,0.0,106.0,106.0,103.0,13.4,1505.2,325.6,-0.8,1.9,2470.501,13.29,0.075,156.5
2022-03-29T01:46:03,42.805,6.029,0.046,-0.063,0.008,106.0,105.0,103.0,13.4,1505.2,325.8,-0.7,1.8,2470.555,13.29,0.078,143.9
2022-03-29T01:49:03,42.805,6.029,0.026,-0.073,-0.024,106.0,105.0,104.0,13.3,1505.2,328.3,-0.7,1.8,2470.537,13.29,0.077,160.4
2022-03-29T01:52:03,42.805,6.029,0.022,-0.086,-0.02,106.0,106.0,103.0,13.4,1505.2,326.0,-0.7,1.8,2470.5,13.29,0.088,165.7
2022-03-29T01:55:03,42.805,6.029,0.052,-0.071,-0.006,106.0,106.0,104.0,13.4,1505.2,324.8,-0.7,1.8,2470.539,13.29,0.088,143.8
2022-03-29T01:58:03,42.805,6.029,0.021,-0.047,0.02,107.0,106.0,103.0,13.4,1505.2,329.1,-0.8,1.8,2470.538,13.29,0.051,155.9
2022-03-29T02:04:03,42.805,6.029,0.019,-0.071,-0.01,106.0,107.0,104.0,13.4,1505.2,332.4,-0.7,1.8,2470.57,13.28,0.073,165.0
2022-03-29T02:07:03,42.805,6.029,0.012,-0.063,0.0,107.0,106.0,104.0,13.4,1505.2,329.6,-0.8,1.9,2470.574,13.28,0.064,169.2
2022-03-29T02:10:03,42.805,6.029,0.024,-0.082,-0.025,107.0,105.0,103.0,13.4,1505.2,331.8,-0.8,1.9,2470.555,13.28,0.085,163.7
2022-03-29T02:13:03,42.805,6.029,0.036,-0.074,-0.016,106.0,106.0,104.0,13.3,1505.2,325.8,-0.7,1.9,2470.58,13.28,0.082,154.1
2022-03-29T02:16:03,42.805,6.029,0.028,-0.08,-0.016,107.0,106.0,103.0,13.4,1505.2,331.3,-0.8,1.8,2470.595,13.29,0.084,160.7
2022-03-29T02:19:03,42.805,6.029,0.015,-0.063,0.001,107.0,105.0,103.0,13.4,1505.2,327.8,-0.7,1.8,2470.53,13.29,0.064,166.6
2022-03-29T02:22:03,42.805,6.029,0.011,-0.059,0.005,108.0,107.0,104.0,13.4,1505.2,330.8,-0.7,1.8,2470.519,13.29,0.06,169.4
2022-03-29T02:25:03,42.805,6.029,0.039,-0.053,0.003,107.0,105.0,104.0,13.4,1505.2,325.0,-0.7,1.8,2470.561,13.29,0.065,143.7
2022-03-29T02:28:03,42.805,6.029,0.017,-0.08,-0.03,106.0,106.0,104.0,13.3,1505.2,330.8,-0.7,1.8,2470.565,13.29,0.081,168.0
2022-03-29T02:31:03,42.805,6.029,0.033,-0.082,-0.004,106.0,106.0,102.0,13.4,1505.2,329.4,-0.8,1.8,2470.554,13.29,0.088,158.1
2022-03-29T02:34:03,42.805,6.029,0.024,-0.062,-0.035,107.0,105.0,103.0,13.4,1505.2,324.0,-0.8,1.9,2470.555,13.29,0.066,158.8
2022-03-29T02:37:03,42.805,6.029,0.027,-0.083,-0.024,107.0,106.0,103.0,13.3,1505.2,330.7,-0.7,1.8,2470.544,13.29,0.087,162.0
2022-03-29T02:40:03,42.805,6.029,0.015,-0.054,0.0,106.0,105.0,104.0,13.3,1505.2,328.2,-0.7,1.8,2470.595,13.29,0.056,164.5
2022-03-29T02:43:03,42.805,6.029,0.03,-0.075,-0.037,107.0,106.0,103.0,13.3,1505.2,327.0,-0.7,1.8,2470.565,13.29,0.08,158.2
2022-03-29T02:46:03,42.805,6.029,0.027,-0.065,0.0,106.0,107.0,103.0,13.3,1505.2,331.6,-0.8,1.8,2470.579,13.29,0.07,157.4
2022-03-29T02:49:03,42.805,6.029,0.006,-0.063,-0.011,107.0,105.0,104.0,13.4,1505.2,328.9,-0.7,1.8,2470.59,13.29,0.063,174.6
2022-03-29T02:52:03,42.805,6.029,0.029,-0.059,-0.001,107.0,106.0,105.0,13.4,1505.2,325.6,-0.8,1.8,2470.576,13.29,0.065,153.8
2022-03-29T02:55:03,42.805,6.029,0.031,-0.068,-0.015,107.0,105.0,105.0,13.4,1505.2,322.4,-0.7,1.8,2470.593,13.29,0.074,155.5
2022-03-29T02:58:03,42.805,6.029,0.036,-0.052,0.02,108.0,106.0,103.0,13.4,1505.2,324.5,-0.7,1.8,2470.615,13.29,0.063,145.3
2022-03-29T03:04:03,42.805,6.029,0.03,-0.078,-0.009,107.0,105.0,104.0,13.4,1505.2,324.7,-0.8,1.9,2470.663,13.28,0.083,159.0
2022-03-29T03:07:03,42.805,6.029,0.026,-0.073,-0.018,107.0,106.0,105.0,13.4,1505.2,329.9,-0.8,1.9,2470.641,13.28,0.077,160.4
2022-03-29T03:10:03,42.805,6.029,0.042,-0.073,-0.031,107.0,107.0,103.0,13.4,1505.2,331.5,-0.8,1.8,2470.616,13.29,0.084,150.1
2022-03-29T03:13:03,42.805,6.029,0.057,-0.048,-0.002,107.0,107.0,104.0,13.4,1505.2,327.0,-0.8,1.8,2470.634,13.29,0.074,130.1
2022-03-29T03:16:03,42.805,6.029,0.022,-0.066,0.008,108.0,105.0,104.0,13.3,1505.2,323.7,-0.8,1.8,2470.661,13.29,0.069,161.6
2022-03-29T03:19:03,42.805,6.029,0.023,-0.055,0.006,107.0,107.0,103.0,13.4,1505.2,324.4,-0.7,1.8,2470.628,13.29,0.059,157.3
2022-03-29T03:22:03,42.805,6.029,0.015,-0.076,-0.008,106.0,105.0,104.0,13.4,1505.2,332.7,-0.7,1.8,2470.628,13.29,0.077,168.8
2022-03-29T03:25:03,42.805,6.029,0.034,-0.058,-0.022,107.0,106.0,104.0,13.4,1505.2,327.3,-0.7,1.8,2470.669,13.29,0.067,149.6
2022-03-29T03:28:03,42.805,6.029,0.041,-0.073,-0.022,108.0,105.0,105.0,13.3,1505.2,330.4,-0.8,1.8,2470.631,13.29,0.083,150.7
2022-03-29T03:31:03,42.805,6.029,0.035,-0.068,0.002,106.0,106.0,104.0,13.4,1505.2,328.7,-0.7,1.8,2470.651,13.29,0.076,152.8
2022-03-29T03:34:03,42.805,6.029,0.015,-0.044,-0.032,107.0,106.0,103.0,13.4,1505.2,329.0,-0.7,1.8,2470.663,13.29,0.046,161.2
2022-03-29T03:37:03,42.805,6.029,0.028,-0.041,-0.02,108.0,106.0,103.0,13.4,1505.2,324.8,-0.8,1.8,2470.649,13.29,0.049,145.7
2022-03-29T03:40:03,42.805,6.029,0.018,-0.056,-0.018,109.0,106.0,104.0,13.4,1505.2,323.8,-0.8,1.8,2470.61,13.29,0.058,162.2
2022-03-29T03:43:03,42.805,6.029,0.041,-0.072,-0.035,107.0,107.0,104.0,13.4,1505.2,332.5,-0.8,1.9,2470.649,13.29,0.082,150.3
2022-03-29T03:46:03,42.805,6.029,0.009,-0.036,0.004,108.0,106.0,104.0,13.4,1505.2,329.8,-0.7,1.8,2470.635,13.29,0.037,166.0
2022-03-29T03:49:03,42.805,6.029,0.028,-0.066,-0.017,107.0,106.0,104.0,13.3,1505.2,325.5,-0.8,1.8,2470.616,13.29,0.071,157.0
2022-03-29T03:52:03,42.805,6.029,0.03,-0.053,-0.03,108.0,107.0,104.0,13.4,1505.2,328.1,-0.7,1.8,2470.646,13.29,0.06,150.5
2022-03-29T03:55:03,42.805,6.029,0.029,-0.058,0.021,106.0,107.0,104.0,13.4,1505.2,329.3,-0.8,1.8,2470.714,13.29,0.064,153.4
2022-03-29T03:58:03,42.805,6.029,0.03,-0.068,-0.006,107.0,106.0,103.0,13.3,1505.2,327.1,-0.8,1.8,2470.702,13.29,0.074,156.2
2022-03-29T04:04:03,42.805,6.029,0.017,-0.069,-0.019,107.0,106.0,104.0,13.4,1505.2,325.1,-0.8,1.8,2470.736,13.28,0.071,166.2
2022-03-29T04:07:03,42.805,6.029,-0.001,-0.061,0.004,106.0,106.0,104.0,13.3,1505.2,327.1,-0.8,1.8,2470.75,13.28,0.061,180.9
2022-03-29T04:10:03,42.805,6.029,0.028,-0.058,0.004,105.0,108.0,104.0,13.3,1505.2,330.6,-0.8,1.8,2470.708,13.29,0.064,154.2
2022-03-29T04:13:03,42.805,6.029,0.027,-0.037,-0.015,107.0,106.0,104.0,13.4,1505.2,323.2,-0.7,1.8,2470.731,13.29,0.045,143.9
2022-03-29T04:16:03,42.805,6.029,0.028,-0.067,0.008,107.0,106.0,104.0,13.4,1505.2,329.7,-0.8,1.8,2470.71,13.29,0.072,157.3
2022-03-29T04:19:03,42.805,6.029,0.017,-0.075,-0.003,107.0,106.0,104.0,13.3,1505.2,330.0,-0.7,1.8,2470.697,13.29,0.076,167.2
2022-03-29T04:22:03,42.805,6.029,0.008,-0.064,-0.022,108.0,106.0,104.0,13.3,1505.2,329.6,-0.8,1.8,2470.716,13.29,0.064,172.9
2022-03-29T04:25:03,42.805,6.029,0.03,-0.07,0.009,107.0,105.0,104.0,13.3,1505.2,322.3,-0.7,1.8,2470.731,13.29,0.076,156.8
2022-03-29T04:28:03,42.805,6.029,0.024,-0.042,-0.005,106.0,106.0,104.0,13.4,1505.2,324.5,-0.8,1.8,2470.742,13.29,0.048,150.3
2022-03-29T04:31:03,42.805,6.029,0.013,-0.052,-0.027,106.0,106.0,103.0,13.3,1505.2,327.0,-0.7,1.8,2470.749,13.29,0.053,166.0
2022-03-29T04:34:03,42.805,6.029,0.006,-0.065,-0.026,107.0,106.0,104.0,13.4,1505.2,327.0,-0.7,1.8,2470.714,13.29,0.065,174.7
2022-03-29T04:37:03,42.805,6.029,0.02,-0.032,0.0,107.0,106.0,105.0,13.4,1505.2,323.4,-0.8,1.8,2470.728,13.29,0.037,148.0
2022-03-29T04:40:03,42.805,6.029,0.018,-0.072,-0.012,107.0,106.0,104.0,13.3,1505.2,332.4,-0.8,1.8,2470.768,13.29,0.074,166.0
2022-03-29T04:43:03,42.805,6.029,0.031,-0.062,-0.02,107.0,106.0,104.0,13.4,1505.2,329.3,-0.8,1.8,2470.694,13.29,0.069,153.4
2022-03-29T04:46:03,42.805,6.029,0.001,-0.057,-0.022,107.0,105.0,104.0,13.4,1505.2,329.8,-0.8,1.8,2470.751,13.29,0.057,179.0
2022-03-29T04:49:03,42.805,6.029,0.008,-0.064,0.008,107.0,106.0,104.0,13.4,1505.2,328.7,-0.7,1.8,2470.734,13.29,0.064,172.9
2022-03-29T04:52:03,42.805,6.029,0.023,-0.049,-0.012,108.0,106.0,104.0,13.4,1505.2,328.9,-0.8,1.8,2470.715,13.29,0.054,154.9
2022-03-29T04:55:03,42.805,6.029,0.026,-0.051,0.012,107.0,106.0,103.0,13.4,1505.2,326.5,-0.7,1.8,2470.737,13.29,0.057,153.0
2022-03-29T04:58:03,42.805,6.029,0.01,-0.043,-0.015,108.0,105.0,104.0,13.3,1505.2,327.8,-0.8,1.8,2470.725,13.29,0.044,166.9
2022-03-29T05:04:03,42.805,6.029,0.014,-0.068,0.0,107.0,107.0,103.0,13.4,1505.2,329.2,-0.8,1.8,2470.8,13.28,0.069,168.4
2022-03-29T05:07:03,42.805,6.029,0.0,-0.052,-0.007,107.0,106.0,104.0,13.3,1505.2,327.5,-0.8,1.8,2470.761,13.28,0.052,180.0
2022-03-29T05:10:03,42.805,6.029,0.024,-0.049,-0.027,107.0,107.0,103.0,13.4,1505.2,325.3,-0.7,1.8,2470.773,13.29,0.054,153.9
2022-03-29T05:13:03,42.805,6.029,0.029,-0.072,-0.04,106.0,107.0,103.0,13.4,1505.2,324.8,-0.7,1.8,2470.727,13.29,0.077,158.1
2022-03-29T05:16:03,42.805,6.029,0.018,-0.065,-0.034,108.0,107.0,104.0,13.4,1505.2,326.2,-0.8,1.8,2470.77,13.29,0.067,164.5
2022-03-29T05:19:03,42.805,6.029,0.012,-0.06,-0.021,107.0,106.0,104.0,13.4,1505.2,330.4,-0.7,1.8,2470.747,13.29,0.061,168.7
2022-03-29T05:22:03,42.805,6.029,0.028,-0.056,-0.026,107.0,107.0,104.0,13.4,1505.2,322.7,-0.8,1.8,2470.722,13.29,0.062,153.4
2022-03-29T05:25:03,42.805,6.029,0.002,-0.066,-0.031,107.0,105.0,104.0,13.4,1505.2,326.9,-0.7,1.8,2470.78,13.29,0.066,178.3
2022-03-29T05:28:03,42.805,6.029,0.027,-0.059,-0.002,107.0,107.0,104.0,13.3,1505.2,325.1,-0.8,1.8,2470.71,13.29,0.064,155.4
2022-03-29T05:31:03,42.805,6.029,0.017,-0.041,-0.023,107.0,106.0,104.0,13.4,1505.2,328.6,-0.8,1.8,2470.736,13.29,0.044,157.5
2022-03-29T05:34:03,42.805,6.029,0.019,-0.033,0.022,108.0,107.0,104.0,13.4,1505.2,323.8,-0.7,1.8,2470.758,13.29,0.038,150.1
2022-03-29T05:37:03,42.805,6.029,0.006,-0.055,-0.019,109.0,106.0,104.0,13.4,1505.2,323.9,-0.7,1.8,2470.744,13.29,0.055,173.8
2022-03-29T05:40:03,42.805,6.029,0.011,-0.057,-0.02,108.0,106.0,104.0,13.4,1505.2,324.0,-0.8,1.8,2470.746,13.29,0.058,169.1
2022-03-29T05:43:03,42.805,6.029,0.024,-0.059,-0.027,107.0,106.0,104.0,13.3,1505.2,328.7,-0.8,1.8,2470.745,13.29,0.063,157.9
2022-03-29T05:46:03,42.805,6.029,0.02,-0.057,-0.023,107.0,105.0,104.0,13.3,1505.2,328.9,-0.7,1.8,2470.72,13.29,0.06,160.7
2022-03-29T05:49:03,42.805,6.029,0.017,-0.043,-0.007,107.0,106.0,104.0,13.3,1505.2,327.5,-0.7,1.8,2470.757,13.29,0.046,158.4
2022-03-29T05:52:03,42.805,6.029,0.03,-0.053,-0.025,108.0,105.0,103.0,13.4,1505.2,329.3,-0.8,1.8,2470.729,13.29,0.06,150.5
2022-03-29T05:55:03,42.805,6.029,-0.005,-0.054,0.009,106.0,106.0,104.0,13.4,1505.2,329.3,-0.8,1.8,2470.731,13.29,0.054,185.3
2022-03-29T05:58:03,42.805,6.029,0.012,-0.065,-0.006,106.0,107.0,103.0,13.4,1505.2,327.0,-0.8,1.8,2470.751,13.29,0.066,169.5
2022-03-29T06:04:03,42.805,6.029,0.016,-0.047,-0.018,107.0,106.0,104.0,13.4,1505.2,323.2,-0.8,1.9,2470.749,13.28,0.049,161.2
2022-03-29T06:07:03,42.805,6.029,0.012,-0.05,-0.018,107.0,106.0,104.0,13.4,1505.2,323.7,-0.8,1.8,2470.754,13.28,0.051,166.5
2022-03-29T06:10:03,42.805,6.029,0.004,-0.039,-0.008,107.0,106.0,104.0,13.4,1505.2,326.3,-0.8,1.8,2470.731,13.29,0.039,174.1
2022-03-29T06:13:03,42.805,6.029,0.006,-0.042,-0.049,106.0,106.0,103.0,13.3,1505.2,329.5,-0.8,1.8,2470.721,13.29,0.042,171.9
2022-03-29T06:16:03,42.805,6.029,0.001,-0.04,-0.021,107.0,105.0,104.0,13.4,1505.2,332.7,-0.7,1.8,2470.76,13.29,0.04,178.6
2022-03-29T06:19:03,42.805,6.029,0.003,-0.031,-0.022,106.0,106.0,103.0,13.4,1505.2,331.3,-0.8,1.8,2470.751,13.29,0.031,174.5
2022-03-29T06:22:03,42.805,6.029,0.0,-0.059,-0.049,107.0,106.0,103.0,13.4,1505.2,333.0,-0.8,1.8,2470.737,13.29,0.058,180.0
2022-03-29T06:25:03,42.805,6.029,-0.01,-0.048,-0.017,107.0,106.0,104.0,13.4,1505.2,324.2,-0.7,1.8,2470.695,13.29,0.049,191.8
2022-03-29T06:28:03,42.805,6.029,0.015,-0.058,-0.036,107.0,106.0,103.0,13.3,1505.2,329.3,-0.8,1.8,2470.786,13.29,0.059,165.5
2022-03-29T06:31:03,42.805,6.029,0.009,-0.03,-0.003,107.0,105.0,103.0,13.3,1505.2,327.1,-0.8,1.8,2470.746,13.29,0.031,163.3
2022-03-29T06:34:03,42.805,6.029,-0.001,-0.046,0.0,106.0,106.0,104.0,13.3,1505.2,330.8,-0.7,1.8,2470.731,13.29,0.046,181.2
2022-03-29T06:37:03,42.805,6.029,-0.007,-0.052,-0.019,107.0,105.0,104.0,13.4,1505.2,330.2,-0.7,1.8,2470.698,13.29,0.052,187.7
2022-03-29T06:40:03,42.805,6.029,0.009,-0.06,-0.008,106.0,106.0,103.0,13.4,1505.2,331.5,-0.7,1.8,2470.756,13.29,0.06,171.5
2022-03-29T06:43:03,42.805,6.029,0.0,-0.049,-0.011,106.0,106.0,105.0,13.4,1505.2,325.8,-0.8,1.8,2470.757,13.29,0.049,180.0
2022-03-29T06:46:03,42.805,6.029,0.006,-0.038,-0.007,107.0,109.0,104.0,13.3,1505.2,328.9,-0.8,1.8,2470.711,13.29,0.038,171.0
2022-03-29T06:49:03,42.805,6.029,0.0,-0.027,0.007,106.0,106.0,103.0,13.4,1505.2,330.2,-0.8,1.8,2470.699,13.29,0.026,180.0
2022-03-29T06:52:03,42.805,6.029,-0.003,-0.039,-0.019,107.0,106.0,103.0,13.3,1505.2,326.5,-0.7,1.8,2470.764,13.29,0.039,184.4
2022-03-29T06:55:03,42.805,6.029,-0.017,-0.032,-0.047,106.0,107.0,104.0,13.4,1505.2,328.4,-0.8,1.8,2470.748,13.29,0.036,208.0
2022-03-29T06:58:03,42.805,6.029,0.013,-0.038,0.013,107.0,105.0,104.0,13.4,1505.2,329.2,-0.7,1.8,2470.709,13.29,0.04,161.1
2022-03-29T07:04:03,42.805,6.029,0.017,-0.043,-0.043,107.0,106.0,105.0,13.3,1505.2,327.0,-0.8,1.8,2470.733,13.28,0.046,158.4
2022-03-29T07:07:03,42.805,6.029,0.015,-0.062,-0.034,107.0,106.0,104.0,13.4,1505.2,325.9,-0.7,1.8,2470.774,13.28,0.063,166.4
2022-03-29T07:10:03,42.805,6.029,0.005,-0.043,0.012,107.0,106.0,104.0,13.4,1505.2,330.2,-0.7,1.8,2470.767,13.29,0.043,173.4
2022-03-29T07:13:03,42.805,6.029,0.008,-0.035,-0.021,106.0,106.0,103.0,13.4,1505.2,329.4,-0.8,1.8,2470.719,13.29,0.035,167.1
2022-03-29T07:16:03,42.805,6.029,0.014,-0.045,0.007,106.0,106.0,104.0,13.3,1505.2,329.6,-0.7,1.8,2470.751,13.29,0.047,162.7
2022-03-29T07:19:03,42.805,6.029,0.023,-0.056,-0.036,107.0,107.0,102.0,13.3,1505.2,326.1,-0.7,1.8,2470.715,13.29,0.06,157.7
2022-03-29T07:22:03,42.805,6.029,0.015,-0.041,0.0,107.0,107.0,104.0,13.4,1505.2,324.9,-0.7,1.8,2470.753,13.29,0.043,159.9
2022-03-29T07:25:03,42.805,6.029,0.021,-0.058,-0.011,106.0,106.0,103.0,13.4,1505.2,329.8,-0.8,1.8,2470.731,13.29,0.061,160.1
2022-03-29T07:28:03,42.805,6.029,0.006,-0.053,-0.022,107.0,107.0,103.0,13.4,1505.2,332.4,-0.8,1.8,2470.732,13.29,0.053,173.5
2022-03-29T07:31:03,42.805,6.029,0.013,-0.057,-0.012,107.0,106.0,103.0,13.3,1505.2,325.3,-0.7,1.8,2470.699,13.29,0.058,167.2
2022-03-29T07:34:03,42.805,6.029,0.016,-0.043,-0.024,107.0,106.0,104.0,13.3,1505.2,325.3,-0.8,1.8,2470.725,13.29,0.045,159.6
2022-03-29T07:37:03,42.805,6.029,-0.004,-0.054,-0.012,107.0,106.0,102.0,13.4,1505.2,329.2,-0.8,1.8,2470.692,13.29,0.054,184.2
2022-03-29T07:40:03,42.805,6.029,0.0,-0.058,-0.001,107.0,107.0,104.0,13.4,1505.2,326.2,-0.8,1.8,2470.723,13.29,0.057,180.0
2022-03-29T07:43:03,42.805,6.029,0.017,-0.041,-0.03,107.0,106.0,105.0,13.3,1505.2,322.7,-0.8,1.8,2470.727,13.29,0.044,157.5
2022-03-29T07:46:03,42.805,6.029,0.011,-0.057,-0.049,107.0,105.0,104.0,13.4,1505.2,325.5,-0.8,1.8,2470.683,13.29,0.058,169.1
2022-03-29T07:49:03,42.805,6.029,-0.004,-0.049,-0.019,106.0,105.0,105.0,13.3,1505.2,332.9,-0.8,1.8,2470.757,13.29,0.049,184.7
2022-03-29T07:52:03,42.805,6.029,0.003,-0.029,0.003,107.0,106.0,104.0,13.4,1505.2,331.0,-0.7,1.8,2470.707,13.29,0.029,174.1
2022-03-29T07:55:03,42.805,6.029,-0.002,-0.04,-0.028,106.0,106.0,104.0,13.4,1505.2,325.2,-0.8,1.8,2470.689,13.29,0.04,182.9
2022-03-29T07:58:03,42.805,6.029,0.005,-0.053,0.006,106.0,106.0,103.0,13.3,1505.2,323.7,-0.8,1.8,2470.694,13.29,0.053,174.6
2022-03-29T08:04:03,42.805,6.029,-0.009,-0.06,-0.016,106.0,105.0,103.0,13.3,1505.2,331.7,-0.7,1.8,2470.71,13.28,0.06,188.5
2022-03-29T08:07:03,42.805,6.029,0.026,-0.073,-0.006,106.0,105.0,103.0,13.3,1505.2,327.3,-0.7,1.8,2470.731,13.28,0.077,160.4
2022-03-29T08:10:03,42.805,6.029,0.013,-0.035,0.012,106.0,105.0,104.0,13.4,1505.2,327.8,-0.8,1.8,2470.729,13.28,0.037,159.6
2022-03-29T08:13:03,42.805,6.029,-0.009,-0.048,-0.002,107.0,105.0,104.0,13.4,1505.2,325.7,-0.8,1.8,2470.72,13.29,0.048,190.6
2022-03-29T08:16:03,42.805,6.029,0.015,-0.051,-0.008,107.0,106.0,104.0,13.4,1505.2,327.9,-0.8,1.8,2470.713,13.29,0.053,163.6
2022-03-29T08:19:03,42.805,6.029,0.008,-0.068,0.003,106.0,106.0,104.0,13.4,1505.2,332.4,-0.7,1.8,2470.686,13.29,0.068,173.3
2022-03-29T08:22:03,42.805,6.029,0.017,-0.059,-0.007,106.0,105.0,104.0,13.3,1505.2,327.7,-0.7,1.8,2470.715,13.29,0.061,163.9
2022-03-29T08:25:03,42.805,6.029,0.002,-0.052,-0.015,107.0,105.0,104.0,13.4,1505.2,326.3,-0.7,1.8,2470.68,13.29,0.052,177.8
2022-03-29T08:28:03,42.805,6.029,0.009,-0.049,-0.029,105.0,105.0,103.0,13.4,1505.2,322.1,-0.7,1.8,2470.706,13.29,0.049,169.6
2022-03-29T08:31:03,42.805,6.029,0.003,-0.047,-0.004,106.0,105.0,104.0,13.4,1505.2,325.8,-0.8,1.8,2470.702,13.29,0.047,176.4
2022-03-29T08:34:03,42.805,6.029,-0.005,-0.046,0.008,106.0,105.0,104.0,13.3,1505.2,327.9,-0.8,1.8,2470.691,13.29,0.046,186.2
2022-03-29T08:37:03,42.805,6.029,0.003,-0.038,-0.045,107.0,104.0,103.0,13.4,1505.2,328.9,-0.7,1.8,2470.659,13.29,0.038,175.5
2022-03-29T08:40:03,42.805,6.029,0.001,-0.056,0.0,106.0,106.0,103.0,13.4,1505.2,330.2,-0.7,1.8,2470.673,13.29,0.056,179.0
2022-03-29T08:43:03,42.805,6.029,0.025,-0.057,-0.008,106.0,105.0,104.0,13.4,1505.2,326.8,-0.8,1.8,2470.654,13.29,0.062,156.3
2022-03-29T08:46:03,42.805,6.029,-0.016,-0.04,0.001,106.0,105.0,104.0,13.4,1505.2,324.0,-0.8,1.8,2470.661,13.29,0.043,201.8
2022-03-29T08:49:03,42.805,6.029,0.027,-0.06,0.0,106.0,104.0,102.0,13.4,1505.2,324.8,-0.8,1.9,2470.691,13.29,0.065,155.8
2022-03-29T08:52:03,42.805,6.029,0.018,-0.051,-0.04,106.0,106.0,103.0,13.4,1505.2,330.4,-0.8,1.8,2470.669,13.29,0.054,160.6
2022-03-29T08:55:03,42.805,6.029,0.013,-0.049,-0.036,106.0,106.0,103.0,13.4,1505.2,323.2,-0.7,1.8,2470.687,13.29,0.05,165.1
2022-03-29T08:58:03,42.805,6.029,-0.026,-0.038,-0.027,106.0,105.0,104.0,13.3,1505.2,329.3,-0.8,1.8,2470.661,13.29,0.046,214.4
2022-03-29T09:04:03,42.805,6.029,0.021,-0.051,-0.014,106.0,106.0,104.0,13.3,1505.2,330.1,-0.8,1.8,2470.699,13.28,0.055,157.6
2022-03-29T09:07:03,42.805,6.029,-0.007,-0.053,-0.02,106.0,106.0,102.0,13.4,1505.2,325.0,-0.8,1.8,2470.666,13.28,0.053,187.5
2022-03-29T09:10:03,42.805,6.029,0.0,-0.064,-0.02,106.0,105.0,104.0,13.4,1505.2,328.6,-0.8,1.8,2470.705,13.28,0.063,180.0
2022-03-29T09:13:03,42.805,6.029,0.002,-0.047,-0.002,106.0,104.0,103.0,13.4,1505.2,329.5,-0.8,1.8,2470.653,13.29,0.047,177.6
2022-03-29T09:16:03,42.805,6.029,0.014,-0.048,-0.03,106.0,105.0,103.0,13.4,1505.2,324.5,-0.8,1.8,2470.681,13.29,0.05,163.7
2022-03-29T09:19:03,42.805,6.029,0.01,-0.047,-0.033,106.0,105.0,103.0,13.4,1505.2,323.7,-0.8,1.8,2470.683,13.29,0.048,168.0
2022-03-29T09:22:03,42.805,6.029,-0.006,-0.038,-0.016,107.0,105.0,103.0,13.4,1505.2,332.4,-0.7,1.8,2470.648,13.29,0.038,189.0
2022-03-29T09:25:03,42.805,6.029,0.003,-0.045,-0.025,106.0,105.0,103.0,13.3,1505.2,328.8,-0.8,1.8,2470.637,13.29,0.045,176.2
2022-03-29T09:28:03,42.805,6.029,0.015,-0.05,-0.021,107.0,105.0,102.0,13.4,1505.2,323.1,-0.7,1.8,2470.644,13.29,0.052,163.3
2022-03-29T09:31:03,42.805,6.029,0.01,-0.045,-0.035,106.0,105.0,104.0,13.4,1505.2,330.5,-0.8,1.8,2470.667,13.29,0.046,167.5
2022-03-29T09:34:03,42.805,6.029,-0.008,-0.063,-0.035,106.0,106.0,103.0,13.4,1505.2,329.1,-0.8,1.8,2470.677,13.29,0.063,187.2
2022-03-29T09:37:03,42.805,6.029,0.017,-0.049,0.002,104.0,105.0,104.0,13.4,1505.2,327.9,-0.8,1.8,2470.65,13.29,0.051,160.9
2022-03-29T09:40:03,42.805,6.029,0.019,-0.037,-0.037,106.0,106.0,103.0,13.4,1505.2,323.5,-0.7,1.8,2470.634,13.29,0.041,152.8
2022-03-29T09:43:03,42.805,6.029,0.004,-0.028,-0.043,106.0,107.0,103.0,13.3,1505.2,329.1,-0.7,1.8,2470.64,13.29,0.028,171.9
2022-03-29T09:46:03,42.805,6.029,0.016,-0.061,0.005,106.0,105.0,103.0,13.4,1505.2,329.2,-0.8,1.9,2470.637,13.29,0.063,165.3
2022-03-29T09:49:03,42.805,6.029,-0.001,-0.06,-0.005,106.0,106.0,103.0,13.4,1505.2,329.0,-0.7,1.8,2470.625,13.29,0.06,181.0
2022-03-29T09:52:03,42.805,6.029,0.013,-0.051,-0.01,106.0,105.0,103.0,13.4,1505.2,328.5,-0.8,1.8,2470.606,13.29,0.052,165.7
2022-03-29T09:55:03,42.805,6.029,-0.009,-0.051,-0.009,106.0,106.0,103.0,13.4,1505.2,326.2,-0.8,1.8,2470.588,13.29,0.051,190.0